Regional Weather Roundup
Issued by NWS

Home | Current Version | Previous Version | Text Only | Print | Product List | Glossary Off
Versions: 1 2 3 4 5 6 7 8 9 10 11 12 13 14 15 16 17 18 19 20 21 22 23 24 25 26 27 28 29 30 31 32 33 34 35 36 37 38 39 40 41 42 43 44 45 46 47 48 49 50

000
ASUS43 KMKX 192011
RWRWI

WISCONSIN REGIONAL WEATHER ROUNDUP
NATIONAL WEATHER SERVICE MILWAUKEE/SULLIVAN WI
300 PM CDT SAT AUG 19 2017

NOTE: "FAIR" INDICATES FEW OR NO CLOUDS BELOW 12,000 FEET WITH NO
SIGNIFICANT WEATHER AND/OR OBSTRUCTIONS TO VISIBILITY.

WIZ001-002-006>008-014>016-023>028-192100-
NORTHWEST WISCONSIN

CITY           SKY/WX    TMP DP  RH WIND       PRES   REMARKS
SUPERIOR ARPT    N/A     81  60  49 SW10G17   29.86F HX  81
ASHLAND        SUNNY     82  59  45 W10       29.88S HX  82
HAYWARD        PTSUNNY   79  58  48 SW6       29.91F HX  80
SIREN          SUNNY     79  59  50 SW5       29.92S HX  80
CUMBERLAND     MOSUNNY   77  59  53 SW5       29.94S
RICE LAKE      MOSUNNY   76  60  57 SW5       29.94F
CHETEK         SUNNY     78  60  54 W5        29.93S
LADYSMITH      MOSUNNY   79  61  53 W7        29.94F HX  80
EAU CLAIRE     SUNNY     79  56  45 SW13      29.92F HX  80
MENOMONIE      MOSUNNY   79  59  49 SW6       29.93F HX  80
NEW RICHMOND   SUNNY     78  57  48 SW7       29.93F
OSCEOLA        SUNNY     78  59  50 CALM      29.95F
$$

WIZ003>005-009-010-017-018-192100-
NORTH CENTRAL WISCONSIN

CITY           SKY/WX    TMP DP  RH WIND       PRES   REMARKS
MANITOWISH WTR PTSUNNY   76  56  51 W9G17     29.91S
ARBOR VITAE    SUNNY     80  58  46 W10G16    29.91F HX  80
WOODRUFF       SUNNY     80  58  46 W10G16    29.91F HX  80
RHINELANDER    SUNNY     79  56  45 W13G18    29.93S HX  80
EAGLE RIVER    MOSUNNY   75  55  50 W7        29.91S
LAND O LAKES   SUNNY     78  53  42 W7        29.93R
PHILLIPS       PTSUNNY   77  59  54 W6G17     29.92S
TOMAHAWK         N/A     77  56  48 W8        29.93F
MEDFORD        MOSUNNY   74  61  62 W9        29.95S
MERRILL        NOT AVBL
$$

WIZ029-030-035-036-043>047-192100-
CENTRAL WISCONSIN

CITY           SKY/WX    TMP DP  RH WIND       PRES   REMARKS
WAUSAU         MOSUNNY   78  58  49 W13       29.92S
MOSINEE        MOSUNNY   79  61  53 W12G18    29.95F HX  80
MARSHFIELD     MOSUNNY   79  57  46 W10       29.94F HX  80
STEVENS POINT  SUNNY     78  58  50 W8        29.94F
WAUPACA        SUNNY     83  58  41 W12       29.93S HX  83
WAUTOMA        MOSUNNY   81  58  45 VRB6      29.94S HX  81
WISC RAPIDS    MOSUNNY   81  59  47 W9        29.95F HX  81
CAMP DOUGLAS   MOSUNNY   81  61  50 NW5       29.95S HX  81
$$

WIZ011>013-019>022-031-037>040-048>050-192100-
NORTHEAST WISCONSIN

CITY           SKY/WX    TMP DP  RH WIND       PRES   REMARKS
ANTIGO         MOSUNNY   77  58  52 W10       29.93F
SHAWANO        SUNNY     82  56  40 W9        29.90S HX  82
OCONTO         MOSUNNY   82  59  46 W8        29.87F HX  82
STURGEON BAY   SUNNY     78  63  59 W12       29.89F HX  80
GREEN BAY      SUNNY     81  64  56 SW8       29.90F HX  82
MANITOWOC      SUNNY     80  60  50 NW10      29.91F HX  81
APPLETON       MOSUNNY   81  54  39 W14       29.91F HX  80
CLINTONVILLE   SUNNY     81  54  39 W9G16     29.91S HX  80
OSHKOSH        MOSUNNY   80  60  50 NW9       29.92F HX  81
$$

WIZ032>034-041-042-053>061-192100-
SOUTHWEST WISCONSIN

CITY           SKY/WX    TMP DP  RH WIND       PRES   REMARKS
LA CROSSE      SUNNY     83  58  42 VRB5      29.93F HX  83
SPARTA         SUNNY     78  58  50 SW3       29.96F
VIROQUA        SUNNY     77  60  54 W5        29.97F
BOSCOBEL       SUNNY     82  59  45 VRB6      29.95F HX  82
PRAIRIE DU CHI SUNNY     80  53  38 S3        29.95F HX  80
PLATTEVILLE    SUNNY     78  62  58 W5        29.98F HX  80
$$

WIZ056-057-062-063-064-067-068-192100-
SOUTH CENTRAL WISCONSIN

CITY           SKY/WX    TMP DP  RH WIND       PRES   REMARKS
REEDSBURG      MOSUNNY   81  61  50 W7        29.94F HX  81
BARABOO/DELLS  MOSUNNY   80  57  44 SW7       29.95F HX  80
LONE ROCK      MOSUNNY   81  60  48 SW7       29.95F HX  82
MINERAL POINT  SUNNY     81  59  47 S5        29.97F HX  81
MADISON        MOSUNNY   79  59  50 SW6       29.96S HX  80
MIDDLETON      MOSUNNY   81  59  47 W7        29.97S HX  81
WATERTOWN      MOSUNNY   78  62  57 W3        29.96S HX  80
MONROE         SUNNY     77  59  53 CALM      29.97F
JANESVILLE     MOSUNNY   81  59  47 VRB5      29.96F HX  81
$$

WIZ051-052-058>065-066-070>072-192100-
SOUTHEAST WISCONSIN

CITY           SKY/WX    TMP DP  RH WIND       PRES   REMARKS
MILWAUKEE      MOSUNNY   82  60  47 W7        29.94F HX  82
WAUKESHA       MOSUNNY   75  59  57 W8        29.97F
MILWAUKEE/TIMM MOSUNNY   79  59  50 SW6       29.96S HX  80
RACINE         SUNNY     80  59  48 W7        29.96F HX  81
KENOSHA        SUNNY     80  59  48 VRB5      29.96S HX  81
FOND DU LAC    MOSUNNY   81  59  47 W7        29.94S HX  81
SHEBOYGAN      SUNNY     80  62  54 W8        29.93S HX  81
WEST BEND      MOSUNNY   79  59  50 W10       29.95S HX  80
JUNEAU         MOSUNNY   77  60  54 SW9       29.96F
$$

LSZ147-162-192100-
LAKE SUPERIOR

STATION/POSITION TIME  TEMP    WIND        PRES    WAVE
                       AIR SEA DIR/SP/G            HT/PER
                 (UTC) (F)     (DEG/KT/KT) (MB)    (FT/S)
W MID LAKE BUOY  1850   61 60  240/ 12/ 14 1010.4F   2/ 5
DEVILS ISLAND    2000   69     220/ 11/ 14 1010.6F
PORT WING        1848   87     260/  7/ 12 1011.5F
SAXON HARBOR     1930   78     290/  7/ 11 1011.2F
$$

LMZ867-665-643>646-192100-
LAKE MICHIGAN

STATION/POSITION TIME  TEMP    WIND        PRES    WAVE
                       AIR SEA DIR/SP/G            HT/PER
                 (UTC) (F)     (DEG/KT/KT) (MB)    (FT/S)
S GREEN BAY BUOY 2000   76     230/  8/ 10 1011.8
N MID LAKE BUOY  1950   68 67  200/ 12/ 14 1012.0F   1/ 3
NORTHPORT PIER   1940   79     240/  2/ 10 1011.2F
KEWAUNEE LAKESHO 1942   80     280/  6/ 11 1011.7F
SHEBOYGAN LAKESH 2000   78     290/  7/ 10 1012.8F
PORT WASHINGTON  1940   74     160/ 11/ 12 1014.6S
ATWATER BUOY     1909   72 71  150/ 12/ 12 1014.3
MILWAUKEE LAKESH 1950   72     140/  9/ 11   N/A
S MID LAKE BUOY  1850   69 72  260/  6/  6 1014.7R   1/ 5
KENOSHA   LAKESH 2000   73     160/  9/ 11 1013.9
$$

TC  - TEMPERATURE IN CELSIUS
VSB - VISIBILITY IN STATUTE MILES
WCI - WIND CHILL INDEX
HX  - HEAT INDEX





USA.gov is the U.S. government's official web portal to all federal, state and local government web resources and services.